Location: *
(38.6646°S, 60.7062°E)
Time: 05:10:59
(UTC+00:00)

Daily predictions for brighter satellites

Satellite Brightness Start Highest point End
(mag) Time Altitude Azimuth Time Altitude Azimuth Time Altitude Azimuth
USA 267 4.5 00:04:02 10° E 00:09:38 31° SSE 00:10:57 29° S
Okean O Rocket 3.9 00:08:15 10° ENE 00:11:30 21° ESE 00:12:42 19° SE
DELTA 2 R/B (1) 4.1 00:20:14 57° E 00:20:14 57° E 00:24:42 10° E
Cosmos 2237 Rocket 3.3 00:31:05 32° N 00:31:05 32° N 00:34:05 10° N
Cosmos 2297 Rocket 3.9 00:34:50 20° S 00:34:50 20° S 00:36:37 10° SSE
Cosmos 1934 Rocket 3.9 00:32:23 41° S 00:34:49 87° E 00:41:05 10° N
CZ-4B DEB 4.2 00:31:11 10° NNE 00:36:40 80° ESE 00:37:37 61° S
Cosmos 2082 3.6 00:37:46 76° S 00:37:46 76° S 00:43:01 10° SSE
Cosmos 2298 Rocket 4.5 00:32:39 10° N 00:37:54 61° ENE 00:43:13 10° SSE
PAYLOAD B 4.3 00:37:43 10° NNE 00:43:18 78° ESE 00:45:55 33° S
SL-16 R/B 2.6 00:41:35 34° S 00:43:56 60° ESE 00:49:32 10° NE
Cosmos 1605 Rocket 4.2 00:38:41 10° S 00:44:51 67° E 00:50:59 10° NNE
STARLINK-1073 4.4 00:50:35 45° SE 00:50:35 45° SE 00:53:36 10° SE
Lacrosse 4 Rocket 2.5 00:50:01 15° N 00:53:01 42° ENE 00:56:53 10° SE
ISS -0.8 00:56:13 11° SSE 00:56:13 11° SSE 00:56:25 10° SSE
STARLINK-1121 4.2 00:55:23 49° SSE 00:55:23 49° SSE 00:58:35 10° SE
STARLINK-1194 4.1 00:56:05 49° E 00:56:05 49° E 00:59:00 10° ENE
Cosmos 1125 Rocket 4.5 00:50:31 10° N 00:55:33 48° ENE 01:00:40 10° SSE
STARLINK-1193 4.0 00:57:59 52° E 00:57:59 52° E 01:01:01 10° ENE
Envisat 4.2 00:54:29 10° NE 00:59:14 40° ESE 01:04:02 10° S
STARLINK-1106 4.1 01:00:09 52° SSE 01:00:09 52° SSE 01:03:32 10° SE
STARLINK-1184 3.8 00:59:53 56° E 00:59:53 56° E 01:03:01 10° ENE
STARLINK-1127 3.7 01:01:48 60° E 01:01:48 60° E 01:05:01 10° ENE
BREEZE-M DEB (TANK) 3.2 00:59:21 23° NW 01:03:05 59° NNE 01:06:17 10° ESE
STARLINK-1142 3.6 01:03:44 65° E 01:03:44 65° E 01:07:04 10° NE
Cosmos 1727 Rocket 4.2 00:57:32 10° N 01:03:43 71° E 01:10:01 10° SSE
STARLINK-1112 4.0 01:04:56 53° S 01:04:56 53° S 01:08:30 10° SE
STARLINK-1137 3.5 01:05:43 70° ESE 01:05:43 70° ESE 01:09:08 10° NE
ATLAS 3B R/B 3.4 01:06:57 35° SW 01:07:24 35° SW 01:14:07 10° SSE
Cosmos 2227 Rocket 3.6 01:09:48 22° SSW 01:09:48 22° SSW 01:12:22 10° S
STARLINK-1195 3.3 01:07:43 75° ESE 01:07:43 75° ESE 01:11:14 10° NE
Sich 1 2.9 01:07:45 55° SSW 01:08:37 74° W 01:13:03 10° N
STARLINK-1128 3.9 01:09:45 53° SSW 01:09:45 53° SSW 01:13:29 10° SE
STARLINK-1152 3.3 01:09:44 80° ESE 01:09:44 80° ESE 01:13:20 10° NE
CENTAUR R/B 4.1 01:11:37 20° SSW 01:11:37 20° SSW 01:15:41 10° S
Cosmos 372 Rocket 4.1 01:11:10 43° WNW 01:12:24 52° WSW 01:17:37 10° S
STARLINK-1113 3.9 01:14:31 50° SSW 01:14:31 50° SSW 01:18:26 10° SE
CZ-4B R/B 3.0 01:10:51 10° N 01:16:10 76° WNW 01:20:56 13° SSW
Helios 1A Rocket 3.9 01:15:13 10° NE 01:19:10 46° ESE 01:23:08 10° S
STARLINK-1119 3.9 01:19:18 47° SW 01:19:18 47° SW 01:23:23 10° SE
USA 215 3.8 01:15:25 10° SE 01:21:27 39° SSW 01:23:45 30° WSW
Lacrosse 5 4.2 01:22:05 10° SSW 01:22:24 10° S 01:23:15 10° S
STARLINK-1114 4.0 01:24:05 42° SW 01:24:18 43° SW 01:28:20 10° SE
STARLINK-1130 (DARKSAT) 4.1 01:28:54 38° SW 01:29:19 40° SSW 01:33:19 10° SE
CZ-4 R/B 4.1 01:27:06 10° ENE 01:29:30 16° ESE 01:31:54 10° SSE
BREEZE-M DEB (TANK) 1.3 01:30:51 67° NW 01:31:07 89° NE 01:34:02 10° SE
Cosmos 1153 Rocket 4.4 01:25:31 10° S 01:31:51 81° W 01:38:12 10° N
STARLINK-1176 3.6 01:32:36 42° W 01:33:32 54° NW 01:37:15 10° NNE
STARLINK-1084 4.2 01:33:39 34° SW 01:34:18 37° SSW 01:38:14 10° SE
Cosmos 1666 Rocket 3.6 01:31:21 18° SSW 01:34:25 55° W 01:38:42 10° N
Cosmos 1633 Rocket 3.0 01:32:24 10° SSW 01:36:52 65° W 01:41:15 10° N
Gbstr 26 Del rocket 4.1 01:36:01 19° SSW 01:37:57 30° SSE 01:41:28 10° E
STARLINK-1098 4.4 01:38:26 31° WSW 01:39:18 34° SSW 01:43:11 10° SE
AQUARIUS 4.1 01:35:00 10° N 01:39:31 81° WNW 01:44:07 10° SSW
STARLINK-1179 3.8 01:38:34 34° W 01:39:42 46° NW 01:43:24 10° NNE
IRS-1C Rocket 4.5 01:35:17 10° NNE 01:40:33 68° ESE 01:45:52 10° S
PSLV R/B 3.9 01:37:32 10° SSE 01:41:45 88° ENE 01:45:51 10° NNW
Cosmos 1933 3.3 01:38:00 10° NNW 01:42:00 64° W 01:46:05 10° S
STARLINK-1123 4.5 01:43:14 28° WSW 01:44:19 32° SSW 01:48:08 10° SSE
Okean O Rocket 2.3 01:43:40 10° NNW 01:47:38 33° W 01:50:09 19° SW
Cosmos 1151 Rocket 3.2 01:43:38 10° NNW 01:47:53 48° W 01:52:11 10° S
STARLINK-1149 4.5 01:46:02 18° SSW 01:48:54 45° SE 01:52:56 10° ENE
Iridium 96 2.9 01:47:37 10° N 01:49:17 66° ENE 01:49:17 66° ENE
Meteor 1-20 Rocket 4.4 01:44:48 10° S 01:50:44 82° E 01:56:31 10° N
Cosmos 2173 Rocket 4.0 01:44:47 10° S 01:50:59 83° E 01:57:07 10° N
USA 267 3.3 01:45:31 10° NE 01:52:05 88° SE 01:58:18 12° SW
Cosmos 1238 Rocket 2.7 01:51:18 22° SW 01:52:51 39° W 01:56:03 10° NNW
SMAP 3.2 01:48:26 10° N 01:52:59 52° W 01:57:37 10° SSW
H-2A R/B 3.7 01:50:14 10° NNW 01:53:24 26° W 01:54:36 22° WSW
ADEOS Rocket 3.8 01:46:28 10° SSE 01:53:43 66° E 02:00:08 10° N
STARLINK-1180 4.3 01:50:51 17° SW 01:53:57 49° SE 01:58:00 10° ENE
SL-8 R/B 3.7 01:49:56 10° NW 01:54:47 86° NNE 01:59:41 10° ESE
Abrixas rocket 1.8 01:55:23 18° WNW 01:57:28 79° SSW 02:00:26 10° SE
Cosmos 1459 Rocket 4.1 01:52:13 10° S 01:58:43 87° W 02:05:05 10° N
STARLINK-1153 4.2 01:55:38 15° SW 01:58:56 53° SE 02:03:02 10° ENE
Hubble Space Telescope 3.3 01:57:16 10° NNW 01:59:56 17° N 02:02:37 10° NE
STARLINK-1132 4.1 02:00:25 14° SW 02:03:55 58° SE 02:08:02 10° ENE
STARLINK-1146 4.5 02:03:24 18° W 02:05:14 26° NW 02:08:17 10° N
DELTA 2 R/B (1) 4.3 02:01:00 15° W 02:05:16 43° NNW 02:10:34 10° NE
STARLINK-1177 3.9 02:05:12 13° SW 02:08:54 64° SE 02:13:03 10° ENE
Cosmos 1048 Rocket 4.4 02:06:21 10° SSW 02:11:16 41° WNW 02:16:12 10° N
STARLINK-1167 3.8 02:09:57 12° SW 02:13:52 70° SE 02:18:02 10° NE
STARLINK-1212 3.7 02:11:50 10° NNW 02:14:56 54° NE 02:18:04 10° ESE
STARLINK-1105 3.7 02:12:18 10° NNW 02:15:24 54° NE 02:18:31 10° ESE
STARLINK-1247 3.7 02:13:11 10° NW 02:16:17 56° NE 02:19:26 10° ESE
STARLINK-1227 3.6 02:13:38 10° NW 02:16:44 57° NE 02:19:53 10° ESE
COSMO-SKYMED 1 2.5 02:12:22 10° S 02:16:47 73° WSW 02:21:08 10° NNW
Cosmos 494 Rocket 4.1 02:12:18 10° SSW 02:17:30 63° WNW 02:22:40 10° N
STARLINK-1226 3.6 02:14:32 10° NW 02:17:39 58° NE 02:20:49 10° SE
STARLINK-1215 3.5 02:15:26 10° NW 02:18:33 59° NE 02:21:42 10° SE
STARLINK-1168 3.8 02:14:45 11° SW 02:18:51 77° SE 02:23:02 10° NE
CZ-2D R/B 4.2 02:16:28 10° NNE 02:20:12 51° ESE 02:23:59 10° S
STARLINK-1234 2.9 02:17:03 10° NW 02:20:19 87° SW 02:23:35 10° SE
STARLINK-1217 3.4 02:17:13 10° NW 02:20:21 63° NE 02:23:30 10° SE
STARLINK-1229 3.4 02:18:06 10° NW 02:21:13 64° NE 02:24:24 10° SE
STARLINK-1270 3.3 02:19:00 10° NW 02:22:08 66° NE 02:25:18 10° SE
Cosmos 1606 4.3 02:19:58 10° WNW 02:22:26 16° WSW 02:24:55 10° SSW
Cosmos 1470 Rocket 4.2 02:19:38 10° SSW 02:23:40 35° W 02:27:38 10° NNW
STARLINK-1164 3.7 02:19:37 10° SW 02:23:51 85° SE 02:28:03 10° NE
STARLINK-1189 3.2 02:20:48 10° NW 02:23:57 69° NE 02:27:08 10° SE
Cosmos 1802 Rocket 4.0 02:18:10 10° SSW 02:24:27 67° W 02:30:35 10° N
STARLINK-1188 3.2 02:21:42 10° NW 02:24:50 71° NE 02:28:01 10° SE
STARLINK-1235 2.8 02:22:19 10° NW 02:25:29 83° SW 02:28:43 10° SE
Genesis I 3.2 02:21:43 10° SW 02:25:42 76° WNW 02:29:39 10° NNE
Cosmos 2263 Rocket 2.4 02:20:27 10° NW 02:25:49 48° WSW 02:31:17 10° SSE
STARLINK-1187 3.0 02:22:45 10° NW 02:25:56 86° NE 02:29:10 10° SE
STARLINK-1191 3.1 02:24:06 10° NW 02:27:15 76° NE 02:30:28 10° SE
SL-16 R/B 3.7 02:23:51 10° WSW 02:27:27 17° W 02:31:02 10° NW
Cosmos 1725 Rocket 4.1 02:21:03 10° S 02:27:29 87° E 02:33:48 10° N
STARLINK-1221 3.1 02:25:00 10° NW 02:28:09 78° NE 02:31:22 10° SE
YAOGAN 6 3.9 02:25:39 10° NNW 02:28:38 23° W 02:31:41 10° SW
STARLINK-1182 3.7 02:24:35 10° SW 02:28:50 87° NW 02:33:01 10° NE
STARLINK-1222 3.0 02:25:53 10° NW 02:29:03 80° NE 02:32:16 10° SE
STARLINK-1214 3.0 02:26:49 10° NW 02:29:58 82° NE 02:33:11 10° SE
Okean-O 2.7 02:26:27 10° N 02:30:52 64° WNW 02:35:21 10° SSW
Lacrosse 4 Rocket 2.9 02:29:15 10° W 02:31:54 16° SW 02:34:34 10° S
Cosmos 405 Rocket 3.9 02:29:09 10° S 02:32:49 45° ESE 02:36:30 10° NNE
STARLINK-1209 3.1 02:29:44 10° WNW 02:33:00 59° SW 02:36:18 10° SE
STARLINK-1163 3.7 02:29:34 10° SW 02:33:48 80° NW 02:37:58 10° NE
Cosmos 1782 3.4 02:32:06 10° NW 02:35:49 36° WSW 02:39:35 10° S
Cosmos 1269 Rocket 4.1 02:31:02 10° SSW 02:36:20 67° WNW 02:41:37 10° N
Cosmos 2123 Rocket 4.1 02:32:27 10° NNW 02:38:37 62° W 02:44:50 10° S
